Main page
METAR-TAF:

METAR-TAF

Airports :

Current weather observation

The report was made 1 hour and 1 minutes ago, at 00:00 UTC
Wind 2 kt from the West/Northwest
Temperature 13°C
Humidity 82%
Pressure 1005 hPa
Visibility 10 km or more
Few clouds at a height of 10000 ft
Broken clouds at a height of 20000 ft

METAR: LBPL 242400Z 29002KT 9999 FEW100 BKN200 13/10 Q1005

Time: 01:01 (01:01 UTC)


TAF: missing

Weather observations and forecasts of more than 4000 airports (METAR and TAF reports).

The available stations are represented by yellow and red dots on the map.

Hover mouse over dot to see the name of the station.

Then click to see weather observations and forecasts.

To change the map : click on the green buttons with a black cross to zoom in, on the green button with a dash to zoom out, or on the green arrows for adjacent maps.


METAR-TAF: